St. Joseph, KS

2:57 PM CST on December 05, 2019 (GMT -0600)
Rosecrans Memorial

Weather History for KSTJ - October, 2019

Change the Weather History Date:

Monday, October 14, 2019

  Actual Average Record
Temperature  
Mean Temperature 53 °F 56 °F  
Max Temperature 73 °F 68 °F 92 °F (1963)
Min Temperature 33 °F 43 °F 24 °F (2006)
Degree Days  
Heating Degree Days 12 10  
Month to date heating degree days 129 115  
Since 1 July heating degree days 134 195  
Cooling Degree Days 0 0  
Month to date cooling degree days 17 18  
Year to date cooling degree days 1466 1217  
Growing Degree Days 4 (Base 50)    
Moisture  
Dew Point 41 °F    
Average Humidity 69    
Maximum Humidity 96    
Minimum Humidity 41    
Precipitation  
Precipitation 0.00 in 0.10 in 1.12 in (1920)
Month to date precipitation 2.35 1.30  
Year to date precipitation 35.95 31.02  
Sea Level Pressure  
Sea Level Pressure 29.97 in    
Wind  
Wind Speed 6 mph (ESE)    
Max Wind Speed 16 mph    
Max Gust Speed 21 mph    
Visibility 10 miles    
Events      
T = Trace of Precipitation, MM = Missing Value Source: NWS Daily Summary

Daily Weather History Graph

Daily Weather History Graph

Search for Another Location

Airport or City:

Astronomy

Oct. 14, 2019 Rise Set
Actual Time 7:28 AM CDT 6:42 PM CDT
Civil Twilight 7:01 AM CDT 7:09 PM CDT
Nautical Twilight 6:30 AM CDT 7:40 PM CDT
Astronomical Twilight 5:58 AM CDT 8:11 PM CDT
Moon 7:32 PM CDT (10/14) 8:01 AM CDT (10/14)
Length of Visible Light 12h 07m
Length of Day
11h 13m
Full, 99% of the Moon is Illuminated
Oct 14
Full
Oct 21
Last Quarter
Oct 27
New
Nov 4
First Quarter
Nov 12
Full

Hourly Weather History & Observations

Time (CDT) Temp. Windchill Dew Point Humidity Pressure Visibility Wind Dir Wind Speed Gust Speed Precip Events Conditions
12:53 AM 36.0 °F - 34.0 °F 93% 30.03 in 10.0 mi Calm Calm - N/A   Clear
1:53 AM 35.1 °F - 33.1 °F 92% 30.03 in 7.0 mi Calm Calm - N/A   Clear
2:53 AM 34.0 °F 29.8 °F 32.0 °F 92% 30.03 in 10.0 mi North 4.6 mph - N/A   Clear
3:53 AM 35.1 °F 31.0 °F 32.0 °F 89% 30.04 in 10.0 mi North 4.6 mph - N/A   Clear
4:53 AM 37.0 °F 33.3 °F 33.1 °F 86% 30.05 in 10.0 mi South 4.6 mph - N/A   Clear
5:53 AM 37.0 °F 34.5 °F 32.0 °F 82% 30.05 in 10.0 mi East 3.5 mph - N/A   Clear
6:53 AM 35.1 °F 31.0 °F 30.9 °F 85% 30.05 in 10.0 mi NNE 4.6 mph - N/A   Clear
7:53 AM 36.0 °F - 32.0 °F 86% 30.06 in 10.0 mi Calm Calm - N/A   Clear
8:53 AM 43.0 °F 41.3 °F 37.0 °F 80% 30.07 in 10.0 mi Variable 3.5 mph - N/A   Clear
9:53 AM 48.0 °F - 37.9 °F 68% 30.07 in 10.0 mi Variable 4.6 mph - N/A   Clear
10:53 AM 55.9 °F - 39.0 °F 53% 30.05 in 10.0 mi ESE 5.8 mph - N/A   Clear
11:53 AM 62.1 °F - 42.1 °F 48% 30.02 in 10.0 mi SSE 8.1 mph - N/A   Clear
12:53 PM 66.9 °F - 44.1 °F 44% 29.99 in 10.0 mi East 8.1 mph - N/A   Clear
1:53 PM 71.1 °F - 46.0 °F 41% 29.95 in 10.0 mi SSE 8.1 mph - N/A   Clear
2:53 PM 72.0 °F - 46.9 °F 41% 29.91 in 10.0 mi SSE 15.0 mph - N/A   Clear
3:53 PM 72.0 °F - 48.9 °F 44% 29.89 in 10.0 mi ESE 12.7 mph - N/A   Clear
4:53 PM 73.0 °F - 46.0 °F 38% 29.88 in 10.0 mi SSE 17.3 mph 24.2 mph N/A   Clear
5:53 PM 70.0 °F - 46.9 °F 44% 29.86 in 10.0 mi SSE 12.7 mph - N/A   Clear
6:53 PM 64.0 °F - 46.0 °F 52% 29.86 in 10.0 mi SSE 9.2 mph - N/A   Clear
7:53 PM 61.0 °F - 46.9 °F 60% 29.85 in 10.0 mi SE 5.8 mph - N/A   Clear
8:53 PM 57.9 °F - 46.0 °F 65% 29.86 in 10.0 mi Calm Calm - N/A   Clear
9:53 PM 51.1 °F - 46.0 °F 83% 29.89 in 10.0 mi NNE 5.8 mph - N/A   Clear
10:53 PM 51.1 °F - 46.0 °F 83% 29.88 in 10.0 mi Calm Calm - N/A   Mostly Cloudy
11:53 PM 53.1 °F - 48.0 °F 83% 29.86 in 10.0 mi SSE 5.8 mph - N/A   Clear